Terminal Aerodrome Forecast
Issued by NWS Raleigh/Durham, NC

Home | Current Version | Previous Version | Text Only | Print | Product List | Glossary On
Versions: 1 2 3 4 5 6 7 8 9 10 11 12 13 14 15 16 17 18 19 20 21 22 23 24 25 26 27 28 29 30 31 32 33 34 35 36 37 38 39 40 41
000
FTUS42 KRAH 241820 AAA
TAFGSO
TAF AMD
KGSO 241820Z 2418/2518 21010KT P6SM SCT050 BKN250
     FM250000 VRB05KT P6SM FEW060 BKN250=

USA.gov is the U.S. government's official web portal to all federal, state and local government web resources and services.